Theta_e
335 334 335 334 335 335 338 340 337 340 341 341 342 342 341 339 332 340 338 339 339 337 331 337 339 331 331 335 333 329 329 332 330 327 331 333 332 332 331 330 335 334 338
341 336 341 338 338 338 334 341 341 340 340 341 341 341 342 341 340 340 339 339 339 339 339 338 338 337 337 335 336 337 333 331 334 335 329 330 333 332 332 334 334 331 337
342 337 343 341 341 338 336 338 341 341 341 340 339 341 342 342 342 343 341 340 338 339 341 337 336 338 340 338 337 337 337 336 335 335 334 330 330 332 334 335 336 336 333
341 337 343 344 343 342 341 339 340 341 341 339 339 342 341 341 341 340 340 341 340 342 339 338 341 342 342 341 341 339 338 337 337 335 337 337 332 334 335 334 334 336 336
342 338 343 344 345 344 343 343 342 341 340 339 339 342 341 342 341 339 340 340 341 340 340 341 341 342 342 341 342 341 339 337 337 335 335 336 334 335 335 335 335 334 334
343 341 342 345 345 344 345 343 341 343 343 340 341 342 341 340 340 339 341 342 342 340 341 341 342 343 343 341 341 342 341 338 336 336 337 337 334 335 335 335 335 334 333
344 345 345 345 346 346 345 344 343 343 342 342 342 343 342 340 341 341 341 342 342 340 338 341 340 341 340 341 341 343 343 343 342 338 337 337 336 335 335 335 335 338 338
344 346 346 345 344 346 345 344 344 343 342 342 342 342 340 342 341 341 341 341 341 341 340 342 341 341 342 341 340 342 341 343 341 340 338 337 337 337 336 335 335 339 339
345 347 345 345 346 346 346 345 344 343 343 343 343 343 342 341 340 341 342 341 340 340 340 341 340 341 342 341 340 341 341 342 342 342 342 340 336 334 334 335 337 339 339
345 345 345 345 346 346 344 344 344 343 343 343 342 342 342 342 342 340 340 341 340 339 339 340 338 338 337 340 340 341 340 338 341 342 343 342 343 342 336 336 337 338 339
348 348 348 347 347 345 343 342 343 341 338 342 342 342 343 342 342 341 341 342 340 339 340 339 340 340 338 339 337 336 335 337 342 342 342 342 343 343 343 342 338 337 338
347 347 345 345 344 344 344 345 343 340 337 341 343 341 342 341 341 341 341 341 340 340 340 339 340 338 337 338 338 337 338 338 339 341 340 341 342 343 343 343 343 341 340
345 345 345 345 347 343 345 346 346 340 340 340 340 341 342 341 341 341 341 342 342 342 339 340 336 338 339 340 341 337 337 338 339 337 337 340 341 344 345 344 343 343 340
337 343 346 347 345 344 343 343 344 343 342 340 340 337 338 343 343 341 342 341 340 341 340 339 340 339 340 341 340 339 339 340 340 339 337 339 339 342 344 346 345 345 344
343 345 344 346 346 345 343 345 344 342 343 341 338 337 339 341 341 341 342 340 341 340 340 338 338 340 341 341 341 339 340 339 339 340 340 339 340 341 343 345 346 345 346
347 348 347 347 346 346 345 344 343 342 342 341 339 339 340 340 339 340 340 339 339 339 337 336 334 333 334 335 336 337 338 336 335 335 335 339 340 341 342 342 345 346 346
342 341 341 341 340 341 340 341 341 341 341 339 338 337 338 338 338 338 338 335 334 333 331 330 330 328 327 327 329 329 328 324 321 320 328 334 339 339 339 343 344 346 345
334 331 331 331 334 336 338 338 338 338 338 336 338 337 337 336 334 333 332 331 334 333 335 334 333 333 333 333 333 332 332 330 322 323 319 321 332 338 339 340 344 345 344
331 330 330 331 331 332 334 335 337 337 338 338 338 338 338 337 336 335 334 333 335 335 335 335 334 334 335 334 334 334 333 331 323 321 320 316 321 332 335 336 337 343 345
331 330 330 331 332 333 333 334 334 335 335 335 334 334 334 334 335 336 336 335 336 335 335 335 335 335 334 333 331 331 329 321 315 318 319 314 315 326 334 335 336 337 339
333 333 333 333 333 336 336 333 331 332 331 331 330 329 329 330 330 331 330 328 327 329 328 328 328 326 325 326 323 317 316 317 316 316 316 315 316 322 331 336 337 338 339
333 332 332 332 332 330 330 327 322 318 315 313 313 313 311 310 311 311 311 311 310 311 310 309 308 309 309 309 310 311 315 317 320 317 316 314 317 318 325 331 340 340 340
329 326 324 321 319 316 313 311 311 311 310 310 309 309 308 308 308 308 307 307 307 307 308 309 308 308 308 307 307 310 311 313 315 315 317 313 311 311 313 320 330 337 339
320 316 314 311 309 309 311 312 313 312 311 310 309 308 308 309 309 309 309 309 309 309 309 309 309 309 309 310 309 308 308 310 311 312 314 314 312 310 310 309 314 326 333
310 309 309 311 313 313 313 312 311 311 310 309 309 309 309 310 310 309 309 309 309 309 309 309 309 309 310 311 311 310 309 308 308 308 309 310 309 309 310 310 309 309 318
310 312 313 313 315 314 312 311 310 310 310 310 310 310 310 310 309 308 307 307 306 307 307 308 308 309 310 311 310 310 310 309 309 309 310 311 312 313 313 311 311 311 309
Wind_Speed
14 15 14 13 13 16 16 16 14 14 13 12 13 15 15 15 17 17 19 18 18 20 20 19 19 18 21 17 16 18 15 13 10 9 8 8 8 8 8 9 9 8 7
14 15 13 13 13 14 19 19 18 17 17 16 17 17 18 21 20 21 21 19 18 16 18 19 17 17 19 18 18 20 19 17 14 11 10 9 9 8 9 9 9 9 8
15 14 13 12 9 11 16 21 21 20 19 18 17 18 18 19 19 17 18 18 19 18 19 21 18 18 17 18 19 21 21 19 17 14 13 12 11 9 9 10 11 10 9
15 15 16 14 11 12 13 18 22 22 23 22 18 16 15 15 17 19 22 20 17 15 19 20 17 16 17 17 16 19 21 20 18 18 16 15 14 13 12 11 12 13 13
16 17 18 14 13 16 16 16 19 23 25 25 23 19 19 16 17 18 19 21 19 18 16 17 22 20 18 19 18 18 18 20 19 19 19 17 17 15 14 14 14 13 14
19 20 20 14 12 15 17 17 17 17 20 19 18 18 19 20 18 18 17 18 18 20 20 19 19 22 21 19 20 18 17 17 19 20 19 18 18 17 15 16 16 15 15
21 15 13 11 12 16 17 16 18 18 18 18 19 18 18 17 18 20 20 19 20 20 23 21 18 18 19 18 19 15 17 15 18 20 21 22 21 21 20 18 17 17 16
13 14 15 14 13 17 18 17 18 18 18 17 18 17 15 14 15 16 19 21 22 22 21 19 21 21 21 18 17 17 18 15 16 20 20 21 21 21 20 19 18 18 17
11 12 14 15 16 15 16 15 16 17 16 15 19 17 7 7 7 6 10 16 20 22 24 23 18 19 20 21 18 16 15 16 18 19 18 19 19 21 21 19 19 18 17
11 11 12 13 14 12 10 13 13 10 13 13 15 17 18 13 5 4 6 5 7 10 15 17 17 19 23 22 18 18 16 16 18 22 21 20 20 20 22 21 20 19 18
12 11 13 12 12 12 16 16 15 10 8 11 10 12 13 16 13 12 11 11 11 9 9 15 16 17 15 15 13 14 17 19 19 21 23 23 23 21 23 22 24 23 21
14 12 14 12 11 11 14 15 15 14 12 9 7 9 11 13 11 9 8 10 9 7 7 8 9 5 12 9 8 12 15 14 18 25 24 24 26 22 23 24 22 22 23
17 13 16 13 13 15 13 12 16 16 14 10 8 5 11 13 16 16 14 10 6 3 1 1 4 5 6 7 7 6 9 10 12 18 24 23 24 23 22 24 25 23 22
15 17 14 14 10 9 9 10 12 17 16 12 7 11 17 13 14 9 9 10 6 4 3 2 3 5 6 5 8 10 10 10 13 15 18 22 23 23 23 26 27 26 24
14 11 10 9 8 8 8 8 11 12 14 13 15 16 14 11 10 6 6 8 8 4 4 2 2 3 7 8 9 11 13 13 13 13 16 21 21 22 24 25 27 27 25
7 7 7 6 6 6 7 9 10 12 13 14 11 9 10 9 7 7 7 4 1 6 8 6 8 10 12 13 15 17 19 21 22 20 18 18 22 24 23 28 29 28 29
3 5 5 6 5 5 5 7 9 8 8 11 14 11 12 12 10 10 11 9 7 9 11 12 13 12 12 13 14 17 20 22 23 24 25 20 18 22 23 28 31 28 27
6 7 7 6 6 5 4 3 4 6 8 6 8 12 16 17 15 16 14 16 13 13 15 18 18 18 18 18 21 23 23 24 25 23 23 24 22 21 21 24 29 29 29
4 4 5 4 5 5 5 4 4 4 5 5 7 7 8 10 13 13 15 17 20 18 18 21 22 23 24 23 26 29 30 29 27 25 22 22 24 23 22 22 26 29 32
1 2 3 3 4 4 5 5 5 6 8 9 9 10 11 11 9 12 17 19 22 22 21 22 24 25 26 27 28 33 36 30 28 25 24 20 22 25 21 22 23 27 29
4 4 5 6 7 6 5 5 7 8 9 10 11 11 11 12 10 10 11 14 16 18 22 24 26 28 31 32 32 31 30 30 30 27 24 18 18 23 22 21 24 25 26
6 7 8 8 9 10 10 11 11 11 9 8 7 8 9 9 10 10 11 14 16 19 21 24 26 28 31 32 32 30 28 28 25 22 23 23 21 22 25 25 24 24 25
6 7 8 9 9 10 11 10 8 8 8 8 9 10 10 10 11 12 14 15 16 17 21 25 28 27 29 30 32 34 32 31 32 32 30 35 28 27 24 29 29 28 27
8 8 9 9 8 8 8 7 7 8 10 12 14 13 11 12 15 19 22 24 25 25 26 28 29 28 28 28 30 34 35 35 37 36 29 38 33 32 28 27 30 34 33
8 7 5 5 6 6 5 6 9 11 13 15 13 14 17 20 23 27 31 34 35 33 31 30 29 28 26 25 25 29 32 31 34 35 33 34 34 32 27 25 22 26 33
3 4 5 5 5 5 7 9 9 10 12 15 16 17 20 24 28 30 31 33 35 34 33 30 26 25 26 26 24 23 25 28 27 24 16 14 15 14 17 23 19 19 22
Wind_Direction
258 262 276 271 261 245 247 233 240 239 248 261 250 257 251 258 242 241 247 263 261 257 247 255 259 237 243 252 249 249 246 246 246 250 251 256 257 255 253 254 248 247 250
265 263 273 268 263 258 242 237 246 247 251 257 261 267 263 261 250 254 253 254 256 258 249 258 253 239 248 249 244 247 247 247 249 251 248 254 253 258 259 260 257 251 247
265 260 261 267 267 266 243 243 247 247 253 264 267 266 271 255 254 259 250 250 248 254 261 252 254 246 247 243 238 243 246 247 247 248 251 249 257 259 265 263 262 259 254
265 255 255 262 267 260 258 248 248 254 260 264 268 267 260 258 258 266 260 251 250 254 243 244 246 248 249 244 244 244 243 242 244 245 247 253 251 256 261 264 264 261 260
267 251 257 256 255 261 260 260 260 263 265 266 268 264 256 262 262 268 269 247 246 248 253 251 246 244 247 244 246 248 245 240 240 242 245 249 245 250 258 263 264 264 260
259 247 248 250 251 259 263 261 263 265 271 268 257 263 260 268 268 266 269 248 237 241 242 242 237 238 248 253 252 251 255 251 241 239 245 244 246 245 251 258 259 258 257
252 259 268 266 263 266 267 264 262 266 268 275 267 259 263 266 269 266 261 250 241 248 246 243 244 247 248 246 257 257 263 257 253 248 242 244 244 248 249 251 255 256 253
273 273 277 279 278 272 273 267 266 271 273 272 266 266 284 274 269 264 249 244 244 250 258 249 247 250 250 252 248 256 262 261 261 255 250 248 244 243 243 243 243 250 253
278 274 279 275 271 266 272 277 280 280 287 283 274 268 230 241 328 282 243 244 245 251 256 249 256 255 247 245 248 251 254 262 265 258 257 254 251 249 239 236 239 239 246
282 276 267 267 271 279 274 268 261 268 289 297 285 276 233 244 288 313 244 243 230 243 245 241 247 264 254 243 246 247 255 261 259 254 254 258 252 254 250 239 235 238 240
279 285 283 278 271 255 248 255 255 259 269 277 280 276 238 238 245 258 277 264 254 263 256 236 256 263 245 232 243 253 258 257 256 251 250 247 253 256 254 249 243 241 243
294 299 291 274 264 264 270 265 258 244 273 258 266 275 239 226 235 252 262 260 262 262 259 266 251 232 208 232 247 259 249 257 254 252 256 246 249 249 249 251 248 241 239
284 285 275 282 280 282 274 272 263 255 278 251 247 270 263 245 242 255 248 261 254 275 325 294 207 218 216 233 250 230 237 265 282 263 254 244 243 246 250 252 247 245 241
319 272 275 272 285 279 282 282 271 260 261 257 258 303 292 253 242 235 254 261 274 258 230 216 201 211 219 231 242 245 264 275 286 298 261 244 246 251 248 247 246 246 248
296 286 286 294 291 290 282 267 276 268 256 261 283 295 283 244 232 221 236 248 268 281 273 261 259 244 230 259 269 267 279 287 289 294 294 266 256 252 246 245 242 242 246
307 317 315 310 306 291 273 273 263 269 269 272 280 301 293 264 230 199 208 153 283 300 289 280 276 273 271 274 278 284 289 289 287 285 288 287 265 257 253 242 242 242 244
4 358 4 10 355 326 302 281 277 280 269 279 275 270 258 247 231 223 228 245 291 285 289 290 291 289 279 280 285 290 294 297 292 281 275 273 277 267 258 249 240 237 238
68 64 57 46 36 21 6 343 310 302 287 303 317 275 261 252 250 252 257 260 257 269 281 287 288 287 286 289 295 299 301 301 299 291 281 267 263 268 263 254 240 234 237
63 63 55 47 40 28 19 8 343 329 337 331 334 313 297 268 268 271 266 256 254 264 272 282 287 288 289 291 293 296 300 298 296 289 285 277 262 258 265 263 255 246 242
21 0 4 353 344 346 337 334 332 329 326 326 316 315 316 317 306 279 269 269 260 268 277 281 284 286 288 292 296 297 297 297 296 289 287 280 263 255 255 259 254 250 250
318 311 317 317 324 332 348 348 332 318 313 309 311 313 314 309 308 299 294 297 294 287 286 285 286 289 291 293 295 296 294 296 295 295 293 284 262 248 246 246 251 247 247
308 311 304 301 305 308 311 316 324 326 328 328 324 317 315 309 304 299 296 296 298 298 298 300 294 290 288 290 290 289 291 292 297 289 292 283 275 261 245 242 238 238 244
309 301 299 300 302 306 312 321 333 345 354 354 352 344 335 325 317 311 306 301 299 302 306 306 303 299 291 289 286 285 284 285 281 284 287 288 287 279 265 254 243 239 238
310 307 305 309 322 337 340 348 351 352 347 342 338 336 336 334 328 324 317 311 306 301 298 299 298 295 290 290 283 281 281 279 279 281 283 285 291 289 286 268 251 243 240
318 323 338 353 10 8 0 352 338 331 324 328 334 332 329 328 324 321 318 315 311 305 301 296 294 295 296 292 286 279 277 280 280 280 282 286 289 293 286 281 267 253 247
357 14 353 331 335 338 337 328 324 326 326 322 319 317 316 316 317 317 315 315 314 314 311 306 298 292 294 299 296 277 274 272 275 283 294 273 290 281 297 288 274 255 244